EDW2A EDDS-EDDK

Flight info

Callsign EDW2A
Flight time 0h 35m
Altitude 22000
Route TAGIK4B/25 TAGIK Z3 VATAK T840 GULKO
Aircraft A320/M-SDE3FGHIRWY/LB1

Departure

Time 2026-05-06 18:53
Airport Stuttgart Airport (EDDS)

Arrival

Time 2026-05-06 19:29
Airport Cologne Bonn Airport (EDDK)
Time Latitude Longitude Altitude Speed Heading
2026-05-06 18:36 48.68953 9.19715 1312 ft 0 kts 344°
2026-05-06 18:44 48.68943 9.19719 1311 ft 4 kts 344°
2026-05-06 18:44 48.68917 9.19731 1309 ft 4 kts 344°
2026-05-06 18:44 48.68892 9.19739 1308 ft 4 kts
2026-05-06 18:44 48.68872 9.19721 1307 ft 4 kts 65°
2026-05-06 18:45 48.68868 9.19706 1308 ft 1 kts 74°
2026-05-06 18:47 48.68870 9.19719 1307 ft 4 kts 75°
2026-05-06 18:47 48.68883 9.19792 1305 ft 11 kts 76°
2026-05-06 18:47 48.68851 9.19886 1300 ft 13 kts 161°
2026-05-06 18:48 48.68835 9.20022 1295 ft 18 kts 67°
2026-05-06 18:48 48.68872 9.20192 1291 ft 18 kts 72°
2026-05-06 18:48 48.68909 9.20407 1289 ft 24 kts 76°
2026-05-06 18:48 48.68959 9.20675 1278 ft 29 kts 75°
2026-05-06 18:49 48.69020 9.20982 1273 ft 31 kts 72°
2026-05-06 18:49 48.69073 9.21283 1266 ft 30 kts 73°
2026-05-06 18:49 48.69134 9.21592 1262 ft 31 kts 73°
2026-05-06 18:49 48.69192 9.21900 1257 ft 31 kts 75°
2026-05-06 18:50 48.69229 9.22132 1244 ft 23 kts 76°
2026-05-06 18:50 48.69283 9.22371 1252 ft 25 kts 73°
2026-05-06 18:50 48.69330 9.22631 1233 ft 27 kts 73°
2026-05-06 18:50 48.69384 9.22913 1227 ft 29 kts 74°
2026-05-06 18:51 48.69440 9.23179 1222 ft 27 kts 73°
2026-05-06 18:51 48.69488 9.23454 1216 ft 27 kts 74°
2026-05-06 18:51 48.69518 9.23635 1212 ft 11 kts 84°
2026-05-06 18:51 48.69482 9.23734 1208 ft 13 kts 145°
2026-05-06 18:52 48.69394 9.23712 1205 ft 15 kts 220°
2026-05-06 18:52 48.69349 9.23643 1206 ft 9 kts 224°
2026-05-06 18:52 48.69296 9.23565 1205 ft 11 kts 224°
2026-05-06 18:52 48.69235 9.23466 1208 ft 17 kts 235°
2026-05-06 18:53 48.69151 9.23060 1216 ft 74 kts 255°
2026-05-06 18:53 48.68953 9.22016 1245 ft 131 kts 254°
2026-05-06 18:53 48.68667 9.20542 1582 ft 143 kts 253°
2026-05-06 18:53 48.68379 9.18998 2079 ft 155 kts 253°
2026-05-06 18:54 48.68079 9.17442 2695 ft 162 kts 253°
2026-05-06 18:54 48.67738 9.15695 3009 ft 185 kts 253°
2026-05-06 18:54 48.67346 9.13711 3411 ft 209 kts 253°
2026-05-06 18:54 48.66982 9.11506 3966 ft 222 kts 267°
2026-05-06 18:55 48.67417 9.09262 4707 ft 232 kts 303°
2026-05-06 18:55 48.68469 9.07370 5528 ft 238 kts 314°
2026-05-06 18:55 48.69939 9.06079 6151 ft 258 kts 338°
2026-05-06 18:55 48.71708 9.05229 6712 ft 273 kts 343°
2026-05-06 18:56 48.73629 9.04900 7462 ft 281 kts 354°
2026-05-06 18:56 48.75570 9.04729 8266 ft 286 kts 355°
2026-05-06 18:56 48.77573 9.04554 9089 ft 290 kts 354°
2026-05-06 18:56 48.79600 9.04375 9884 ft 294 kts 355°
2026-05-06 18:57 48.81698 9.04188 10287 ft 313 kts 354°
2026-05-06 18:57 48.83957 9.03981 10496 ft 336 kts 355°
2026-05-06 18:57 48.86215 9.03777 10982 ft 346 kts 355°
2026-05-06 18:57 48.88639 9.03565 11664 ft 352 kts 355°
2026-05-06 18:58 48.91094 9.03352 12384 ft 355 kts 355°
2026-05-06 18:58 48.93577 9.03136 13093 ft 360 kts 355°
2026-05-06 18:58 48.96089 9.02917 13784 ft 363 kts 355°
2026-05-06 18:58 48.98590 9.02699 14397 ft 367 kts 356°
2026-05-06 18:59 49.01153 9.02481 15002 ft 371 kts 356°
2026-05-06 18:59 49.03750 9.02260 15574 ft 376 kts 356°
2026-05-06 18:59 49.06366 9.02032 16179 ft 379 kts 356°
2026-05-06 18:59 49.09013 9.01797 16808 ft 382 kts 356°
2026-05-06 19:00 49.11687 9.01560 17390 ft 387 kts 356°
2026-05-06 19:00 49.14387 9.01319 18003 ft 390 kts 356°
2026-05-06 19:00 49.17102 9.01080 18551 ft 393 kts 356°
2026-05-06 19:00 49.19864 9.00840 19060 ft 397 kts 356°
2026-05-06 19:01 49.22581 9.00602 19561 ft 401 kts 356°
2026-05-06 19:01 49.25375 9.00355 20114 ft 403 kts 356°
2026-05-06 19:01 49.28188 9.00103 20648 ft 406 kts 356°
2026-05-06 19:01 49.31024 8.99845 21153 ft 410 kts 356°
2026-05-06 19:02 49.33888 8.99582 21663 ft 414 kts 356°
2026-05-06 19:02 49.36767 8.99321 21809 ft 415 kts 356°
2026-05-06 19:02 49.39646 8.99068 21835 ft 416 kts 356°
2026-05-06 19:02 49.42494 8.98817 21833 ft 415 kts 356°
2026-05-06 19:03 49.45092 8.98648 21827 ft 415 kts
2026-05-06 19:03 49.48068 8.99238 21846 ft 415 kts
2026-05-06 19:03 49.50944 8.99689 21831 ft 415 kts
2026-05-06 19:03 49.53822 8.99614 21830 ft 414 kts 350°
2026-05-06 19:04 49.56562 8.98344 21836 ft 412 kts 333°
2026-05-06 19:04 49.59083 8.96260 21834 ft 411 kts 330°
2026-05-06 19:04 49.61585 8.94128 21833 ft 411 kts 330°
2026-05-06 19:04 49.64085 8.91984 21837 ft 411 kts 330°
2026-05-06 19:05 49.66579 8.89841 21841 ft 410 kts 330°
2026-05-06 19:05 49.69071 8.87701 21844 ft 410 kts 330°
2026-05-06 19:05 49.71561 8.85558 21844 ft 410 kts 330°
2026-05-06 19:05 49.74018 8.83442 21844 ft 409 kts 330°
2026-05-06 19:06 49.76503 8.81302 21841 ft 409 kts 330°
2026-05-06 19:06 49.78993 8.79158 21842 ft 409 kts 330°
2026-05-06 19:06 49.81469 8.77022 21842 ft 409 kts 330°
2026-05-06 19:06 49.83962 8.74863 21840 ft 409 kts 329°
2026-05-06 19:07 49.86444 8.72709 21847 ft 409 kts 329°
2026-05-06 19:07 49.88927 8.70550 21858 ft 409 kts 329°
2026-05-06 19:07 49.91403 8.68394 21854 ft 408 kts 329°
2026-05-06 19:07 49.93884 8.66234 21861 ft 408 kts 329°
2026-05-06 19:08 49.96354 8.64085 21861 ft 406 kts 329°
2026-05-06 19:08 49.98776 8.61982 21767 ft 392 kts 329°
2026-05-06 19:08 50.01109 8.59952 21264 ft 390 kts 329°
2026-05-06 19:08 50.03474 8.57887 20730 ft 388 kts 329°
2026-05-06 19:09 50.05820 8.55836 20254 ft 385 kts 329°
2026-05-06 19:09 50.08142 8.53805 19801 ft 382 kts 329°
2026-05-06 19:09 50.10447 8.51790 19350 ft 378 kts 329°
2026-05-06 19:09 50.12731 8.49785 18916 ft 375 kts 329°
2026-05-06 19:10 50.14999 8.47790 18476 ft 372 kts 329°
2026-05-06 19:10 50.17240 8.45811 18030 ft 369 kts 329°
2026-05-06 19:10 50.19466 8.43847 17528 ft 367 kts 329°
2026-05-06 19:10 50.21684 8.41891 16954 ft 367 kts 329°
2026-05-06 19:11 50.23913 8.39927 16383 ft 367 kts 328°
2026-05-06 19:11 50.26099 8.37997 15905 ft 365 kts 329°
2026-05-06 19:11 50.28304 8.36047 15423 ft 363 kts 329°
2026-05-06 19:11 50.30498 8.34108 14954 ft 361 kts 329°
2026-05-06 19:12 50.32675 8.32183 14503 ft 359 kts 328°
2026-05-06 19:12 50.34843 8.30259 14095 ft 356 kts 328°
2026-05-06 19:12 50.36988 8.28350 13857 ft 355 kts 328°
2026-05-06 19:12 50.39124 8.26452 13434 ft 352 kts 328°
2026-05-06 19:13 50.41247 8.24562 12919 ft 350 kts 328°
2026-05-06 19:13 50.43358 8.22680 12421 ft 348 kts 328°
2026-05-06 19:13 50.45426 8.20840 11936 ft 346 kts 328°
2026-05-06 19:13 50.47510 8.18989 11457 ft 343 kts 328°
2026-05-06 19:14 50.49580 8.17145 10997 ft 341 kts 328°
2026-05-06 19:14 50.51605 8.15340 10834 ft 327 kts 328°
2026-05-06 19:14 50.53535 8.13623 10844 ft 311 kts 328°
2026-05-06 19:14 50.55372 8.11985 10850 ft 300 kts 327°
2026-05-06 19:15 50.57172 8.10370 10849 ft 297 kts 327°
2026-05-06 19:15 50.58960 8.08758 10842 ft 296 kts 327°
2026-05-06 19:15 50.60750 8.07142 10855 ft 296 kts 327°
2026-05-06 19:15 50.62534 8.05527 10844 ft 297 kts 327°
2026-05-06 19:16 50.64328 8.03906 10839 ft 297 kts 327°
2026-05-06 19:16 50.66118 8.02293 10841 ft 293 kts 327°
2026-05-06 19:16 50.67825 8.00759 10832 ft 278 kts 327°
2026-05-06 19:16 50.69462 7.99288 10837 ft 266 kts 327°
2026-05-06 19:17 50.71057 7.97847 10839 ft 263 kts 327°
2026-05-06 19:17 50.72563 7.96250 10842 ft 259 kts 316°
2026-05-06 19:17 50.73691 7.94079 10841 ft 254 kts 299°
2026-05-06 19:17 50.74355 7.91532 10843 ft 252 kts 283°
2026-05-06 19:18 50.74528 7.88785 10837 ft 252 kts 266°
2026-05-06 19:18 50.74216 7.86068 10843 ft 253 kts 256°
2026-05-06 19:18 50.73788 7.83378 10844 ft 252 kts 257°
2026-05-06 19:18 50.73365 7.80693 10848 ft 252 kts 257°
2026-05-06 19:19 50.72943 7.78009 10797 ft 252 kts 257°
2026-05-06 19:19 50.72533 7.75405 10492 ft 250 kts 257°
2026-05-06 19:19 50.72111 7.72727 10160 ft 250 kts 257°
2026-05-06 19:19 50.71694 7.70072 9718 ft 249 kts 257°
2026-05-06 19:20 50.71218 7.67470 9143 ft 248 kts 249°
2026-05-06 19:20 50.70473 7.65021 8577 ft 247 kts 244°
2026-05-06 19:20 50.69678 7.62638 8024 ft 244 kts 244°
2026-05-06 19:20 50.68876 7.60289 7474 ft 242 kts 243°
2026-05-06 19:21 50.68093 7.57955 6901 ft 241 kts 245°
2026-05-06 19:21 50.67312 7.55656 6386 ft 239 kts 243°
2026-05-06 19:21 50.66536 7.53351 5831 ft 238 kts 244°
2026-05-06 19:21 50.65764 7.51056 5282 ft 236 kts 246°
2026-05-06 19:22 50.65395 7.48612 4739 ft 228 kts 276°
2026-05-06 19:22 50.65625 7.46155 4238 ft 223 kts 284°
2026-05-06 19:22 50.65928 7.43852 4101 ft 206 kts 284°
2026-05-06 19:22 50.66211 7.41731 4036 ft 190 kts 285°
2026-05-06 19:23 50.66767 7.39957 3683 ft 178 kts 319°
2026-05-06 19:23 50.67822 7.39192 3226 ft 170 kts 353°
2026-05-06 19:23 50.68990 7.38911 3013 ft 172 kts 347°
2026-05-06 19:23 50.70115 7.38208 3003 ft 176 kts 332°
2026-05-06 19:24 50.71126 7.37116 3005 ft 178 kts 324°
2026-05-06 19:24 50.72081 7.35868 3001 ft 178 kts 321°
2026-05-06 19:24 50.73003 7.34584 2994 ft 170 kts 320°
2026-05-06 19:24 50.73855 7.33371 3020 ft 162 kts 320°
2026-05-06 19:25 50.74678 7.32193 3004 ft 158 kts 320°
2026-05-06 19:25 50.75490 7.31029 2959 ft 157 kts 320°
2026-05-06 19:25 50.76287 7.29883 2818 ft 157 kts 320°
2026-05-06 19:25 50.77089 7.28730 2620 ft 156 kts 320°
2026-05-06 19:26 50.77888 7.27581 2415 ft 155 kts 320°
2026-05-06 19:26 50.78647 7.26485 2209 ft 142 kts 321°
2026-05-06 19:26 50.79357 7.25461 2029 ft 136 kts 320°
2026-05-06 19:26 50.80047 7.24464 1840 ft 133 kts 320°
2026-05-06 19:27 50.80731 7.23488 1663 ft 132 kts 321°
2026-05-06 19:27 50.81421 7.22497 1494 ft 137 kts 317°
2026-05-06 19:27 50.82124 7.21467 1298 ft 138 kts 320°
2026-05-06 19:27 50.82829 7.20468 1134 ft 138 kts 319°
2026-05-06 19:28 50.83524 7.19468 942 ft 138 kts 317°
2026-05-06 19:28 50.84230 7.18432 759 ft 137 kts 318°
2026-05-06 19:28 50.84937 7.17411 540 ft 138 kts 317°
2026-05-06 19:28 50.85653 7.16387 328 ft 140 kts 315°
2026-05-06 19:29 50.86249 7.15516 289 ft 83 kts 316°
2026-05-06 19:29 50.86633 7.14957 273 ft 71 kts 317°
2026-05-06 19:29 50.86867 7.14490 261 ft 43 kts 284°
2026-05-06 19:29 50.86888 7.14323 258 ft 0 kts 281°
2026-05-06 19:30 50.86890 7.14306 257 ft 5 kts 281°
2026-05-06 19:30 50.86901 7.14206 255 ft 13 kts 279°
2026-05-06 19:30 50.86947 7.14049 252 ft 19 kts 313°
2026-05-06 19:30 50.87061 7.13881 243 ft 25 kts 316°
2026-05-06 19:31 50.87198 7.13682 238 ft 28 kts 317°
2026-05-06 19:31 50.87348 7.13464 233 ft 30 kts 317°
2026-05-06 19:31 50.87647 7.13031 233 ft 27 kts 318°
2026-05-06 19:32 50.87735 7.12905 233 ft 12 kts 318°
2026-05-06 19:32 50.87756 7.12875 232 ft 5 kts 317°
2026-05-06 19:32 50.87769 7.12856 232 ft 0 kts 316°
2026-05-06 19:32 50.87783 7.12831 232 ft 7 kts 306°
2026-05-06 19:33 50.87789 7.12806 232 ft 0 kts 284°
2026-05-06 19:34 50.87787 7.12750 232 ft 11 kts 256°
2026-05-06 19:35 50.87765 7.12620 232 ft 12 kts 255°
2026-05-06 19:35 50.87731 7.12535 232 ft 8 kts 209°
2026-05-06 19:35 50.87682 7.12503 232 ft 6 kts 217°
2026-05-06 19:35 50.87683 7.12448 232 ft 5 kts 287°
2026-05-06 19:36 50.87692 7.12406 234 ft 3 kts 288°
2026-05-06 19:36 50.87696 7.12386 232 ft 0 kts 288°